Regional Weather Roundup
Issued by NWS Charleston, WV

Home | Current Version | Previous Version | Text Only | Print | Product List | Glossary Off
Versions: 1 2 3 4 5 6 7 8 9 10 11 12 13 14 15 16 17 18 19 20 21 22 23 24 25 26 27 28 29 30 31 32 33 34 35 36 37 38 39 40 41 42 43 44 45 46 47 48 49 50

000
ASUS41 KRLX 291010
RWRRLX
West Virginia Regional Weather Roundup
National Weather Service Charleston WV
600 AM EDT MON SEP 29 2014

Note: "fair" indicates few or no clouds below 12,000 feet with no
significant weather and/or obstructions to visibility.

WVZ003-291100-
Northern Panhandle of West Virginia

CITY           SKY/WX    TMP DP  RH WIND       PRES   REMARKS
WHEELING       PTCLDY    58  55  90 CALM      30.04S
$$

WVZ009-291100-
Northwest West Virginia

CITY           SKY/WX    TMP DP  RH WIND       PRES   REMARKS
PARKERSBURG    FOG       54  54 100 CALM      30.05S VSB 3/4
$$

WVZ006-291100-
Western West Virginia

CITY           SKY/WX    TMP DP  RH WIND       PRES   REMARKS
HUNTINGTON     MOCLDY    61  60  97 CALM      30.03S
$$

WVZ015-291100-
West Central West Virginia

CITY           SKY/WX    TMP DP  RH WIND       PRES   REMARKS
CHARLESTON     CLOUDY    60  60 100 CALM      30.04S
$$

WVZ031-291100-
North Central West Virginia

CITY           SKY/WX    TMP DP  RH WIND       PRES   REMARKS
CLARKSBURG     MOCLDY    57  56  96 CALM      30.05S
MORGANTOWN     MOCLDY    61  55  81 CALM      30.07R
$$

WVZ035-042-045-291100-
South Central West Virginia

CITY           SKY/WX    TMP DP  RH WIND       PRES   REMARKS
BECKLEY        LGT RAIN  59  56  89 SW3       30.10S
BLUEFIELD      CLOUDY    60  56  86 W6        30.12S
LEWISBURG      CLOUDY    57  55  92 CALM      30.09F
$$

WVZ047-291100-
Northern Mountains of West Virginia

CITY           SKY/WX    TMP DP  RH WIND       PRES   REMARKS
ELKINS         CLOUDY    55  55 100 CALM      30.10S
$$

WVZ052-291100-
Eastern Panhandle of West Virginia

CITY           SKY/WX    TMP DP  RH WIND       PRES   REMARKS
MARTINSBURG    CLOUDY    60  56  86 CALM      30.02S
PETERSBURG     CLOUDY   N/A N/A N/A CALM      30.06R
$$



USA.gov is the U.S. government's official web portal to all federal, state and local government web resources and services.